Weather History for Leonardtown, MD

Change the Weather History Date:

Monday, November 4, 2013

  Actual Average (KNHK) Record (KNHK)
Temperature  
Mean Temperature 38 °F -  
Max Temperature 44 °F 64 °F 79 °F (1982)
Min Temperature 33 °F 47 °F 30 °F (2006)
Degree Days  
Heating Degree Days 26    
Moisture  
Dew Point 27 °F    
Average Humidity 64    
Maximum Humidity 93    
Minimum Humidity 39    
Precipitation  
Precipitation 0.00 in - - ()
Sea Level Pressure  
Sea Level Pressure 30.58 in    
Wind  
Wind Speed 4 mph (NNE)    
Max Wind Speed 9 mph    
Max Gust Speed -    
Visibility 10 miles    
Events      
Averages and records for this station are not official NWS values.
T = Trace of Precipitation, MM = Missing Value Source: NWS Daily Summary

Daily Weather History Graph

Daily Weather History Graph

Search for Another Location

Airport:

Trip Planner

Search our weather history database for the weather conditions in past years. The results will help you decide how hot, cold, wet, or windy it might be!

Date:

Astronomy

Nov. 04, 2013 Rise Set
Actual Time 6:35 AM EST 5:03 PM EST
Civil Twilight 6:08 AM EST 5:30 PM EST
Nautical Twilight 5:36 AM EST 6:02 PM EST
Astronomical Twilight 5:05 AM EST 6:32 PM EST
Moon 7:43 AM EST (11/4) 6:06 PM EST (11/4)
Length of Visible Light 11h 22m
Length of Day
10h 27m
New Moon, 2% of the Moon is Illuminated
Nov 4
New Moon
Nov 10
First Quarter
Nov 17
Full
Nov 25
Last Quarter
Dec 2
New

Hourly Weather History & Observations

Time (EST) Temp. Windchill Dew Point Humidity Pressure Visibility Wind Dir Wind Speed Gust Speed Precip Events Conditions
12:01 AM 42.8 °F 40.1 °F 30.2 °F 61% 30.44 in 10.0 mi NE 4.6 mph - N/A   Clear
12:21 AM 42.8 °F 40.1 °F 30.2 °F 61% 30.45 in 10.0 mi ENE 4.6 mph - N/A   Clear
12:41 AM 42.8 °F 40.1 °F 30.2 °F 61% 30.45 in 10.0 mi NE 4.6 mph - N/A   Clear
1:01 AM 42.8 °F 38.0 °F 30.2 °F 61% 30.46 in 10.0 mi NE 8.1 mph - N/A   Clear
1:21 AM 41.0 °F 37.1 °F 28.4 °F 61% 30.47 in 10.0 mi NE 5.8 mph - N/A   Clear
1:41 AM 41.0 °F 35.2 °F 28.4 °F 61% 30.47 in 10.0 mi ENE 9.2 mph - N/A   Clear
2:01 AM 41.0 °F 36.4 °F 28.4 °F 61% 30.48 in 10.0 mi NNE 6.9 mph - N/A   Clear
2:21 AM 39.2 °F 35.0 °F 26.6 °F 61% 30.49 in 10.0 mi NE 5.8 mph - N/A   Clear
2:41 AM 39.2 °F 35.9 °F 26.6 °F 61% 30.50 in 10.0 mi NE 4.6 mph - N/A   Clear
3:01 AM 39.2 °F 37.0 °F 26.6 °F 61% 30.51 in 10.0 mi NNE 3.5 mph - N/A   Clear
3:21 AM 37.4 °F 33.8 °F 26.6 °F 65% 30.52 in 10.0 mi NE 4.6 mph - N/A   Clear
3:41 AM 37.4 °F 33.8 °F 26.6 °F 65% 30.53 in 10.0 mi NNE 4.6 mph - N/A   Clear
4:01 AM 37.4 °F 32.1 °F 26.6 °F 65% 30.54 in 10.0 mi NNE 6.9 mph - N/A   Clear
4:21 AM 37.4 °F 33.8 °F 26.6 °F 65% 30.54 in 10.0 mi NE 4.6 mph - N/A   Clear
4:41 AM 37.4 °F - 26.6 °F 65% 30.55 in 10.0 mi Calm Calm - N/A   Clear
5:01 AM 37.4 °F 34.9 °F 26.6 °F 65% 30.55 in 10.0 mi NE 3.5 mph - N/A   Clear
5:21 AM 37.4 °F 33.8 °F 26.6 °F 65% 30.55 in 10.0 mi NE 4.6 mph - N/A   Clear
5:41 AM 37.4 °F 34.9 °F 24.8 °F 60% 30.55 in 10.0 mi ENE 3.5 mph - N/A   Clear
6:02 AM 35.6 °F 31.7 °F 24.8 °F 65% 30.55 in 10.0 mi ENE 4.6 mph - N/A   Clear
6:22 AM 35.6 °F 31.7 °F 24.8 °F 65% 30.56 in 10.0 mi NE 4.6 mph - N/A   Clear
6:42 AM 35.6 °F 31.7 °F 24.8 °F 65% 30.56 in 10.0 mi ENE 4.6 mph - N/A   Clear
7:02 AM 35.6 °F 32.8 °F 24.8 °F 65% 30.59 in 10.0 mi NE 3.5 mph - N/A   Clear
7:22 AM 37.4 °F 32.8 °F 24.8 °F 60% 30.59 in 10.0 mi ENE 5.8 mph - N/A   Clear
7:42 AM 37.4 °F - 24.8 °F 60% 30.58 in 10.0 mi Calm Calm - N/A   Clear
8:02 AM 37.4 °F 30.8 °F 24.8 °F 60% 30.58 in 10.0 mi NE 9.2 mph - N/A   Clear
8:22 AM 39.2 °F 33.6 °F 24.8 °F 56% 30.59 in 10.0 mi NE 8.1 mph - N/A   Clear
8:42 AM 39.2 °F 35.9 °F 24.8 °F 56% 30.60 in 10.0 mi NE 4.6 mph - N/A   Clear
9:02 AM 39.2 °F 35.0 °F 26.6 °F 61% 30.60 in 10.0 mi NNE 5.8 mph - N/A   Clear
9:22 AM 41.0 °F 37.1 °F 26.6 °F 57% 30.61 in 10.0 mi NNE 5.8 mph - N/A   Clear
9:42 AM 41.0 °F 39.0 °F 26.6 °F 57% 30.62 in 10.0 mi NE 3.5 mph - N/A   Clear
10:02 AM 41.0 °F 37.1 °F 26.6 °F 57% 30.63 in 10.0 mi North 5.8 mph - N/A   Clear
10:22 AM 42.8 °F 39.3 °F 26.6 °F 53% 30.63 in 10.0 mi North 5.8 mph - N/A   Clear
10:42 AM 42.8 °F 41.1 °F 26.6 °F 53% 30.63 in 10.0 mi NNW 3.5 mph - N/A   Clear
11:02 AM 44.6 °F - 26.6 °F 49% 30.63 in 10.0 mi Calm Calm - N/A   Clear
11:22 AM 44.6 °F 41.4 °F 24.8 °F 46% 30.62 in 10.0 mi North 5.8 mph - N/A   Clear
11:42 AM 44.6 °F 43.1 °F 24.8 °F 46% 30.62 in 10.0 mi North 3.5 mph - N/A   Clear
12:02 PM 44.6 °F 42.2 °F 23.0 °F 43% 30.61 in 10.0 mi NNE 4.6 mph - N/A   Clear
12:22 PM 44.6 °F 41.4 °F 21.2 °F 39% 30.61 in 10.0 mi North 5.8 mph - N/A   Clear
12:42 PM 44.6 °F 42.2 °F 21.2 °F 39% 30.59 in 10.0 mi North 4.6 mph - N/A   Clear
1:02 PM 44.6 °F 43.1 °F 23.0 °F 43% 30.60 in 10.0 mi North 3.5 mph - N/A   Clear
1:22 PM 44.6 °F 43.1 °F 21.2 °F 39% 30.60 in 10.0 mi North 3.5 mph - N/A   Clear
1:42 PM 44.6 °F 41.4 °F 21.2 °F 39% 30.60 in 10.0 mi NNE 5.8 mph - N/A   Clear
2:02 PM 44.6 °F 43.1 °F 23.0 °F 43% 30.59 in 10.0 mi NNW 3.5 mph - N/A   Clear
2:22 PM 44.6 °F 42.2 °F 23.0 °F 43% 30.59 in 10.0 mi NE 4.6 mph - N/A   Clear
2:43 PM 44.6 °F 43.1 °F 24.8 °F 46% 30.60 in 10.0 mi NNW 3.5 mph - N/A   Clear
3:03 PM 42.8 °F 41.1 °F 23.0 °F 46% 30.60 in 10.0 mi NE 3.5 mph - N/A   Clear
3:23 PM 44.6 °F 43.1 °F 26.6 °F 49% 30.60 in 10.0 mi North 3.5 mph - N/A   Clear
3:43 PM 44.6 °F 42.2 °F 24.8 °F 46% 30.61 in 10.0 mi NNE 4.6 mph - N/A   Clear
4:03 PM 42.8 °F 40.1 °F 26.6 °F 53% 30.60 in 10.0 mi NNE 4.6 mph - N/A   Clear
4:23 PM 42.8 °F - 26.6 °F 53% 30.60 in 10.0 mi Calm Calm - N/A   Clear
4:43 PM 42.8 °F - 26.6 °F 53% 30.60 in 10.0 mi Calm Calm - N/A   Clear
5:03 PM 39.2 °F - 28.4 °F 65% 30.60 in 10.0 mi Calm Calm - N/A   Clear
5:23 PM 39.2 °F - 30.2 °F 70% 30.60 in 10.0 mi Calm Calm - N/A   Clear
5:43 PM 39.2 °F - 30.2 °F 70% 30.60 in 10.0 mi Calm Calm - N/A   Clear
6:03 PM 39.2 °F - 30.2 °F 70% 30.60 in 10.0 mi Calm Calm - N/A   Clear
6:23 PM 37.4 °F - 30.2 °F 75% 30.59 in 10.0 mi Calm Calm - N/A   Clear
6:43 PM 37.4 °F - 30.2 °F 75% 30.60 in 10.0 mi Calm Calm - N/A   Clear
7:03 PM 37.4 °F - 30.2 °F 75% 30.60 in 10.0 mi Calm Calm - N/A   Clear
7:23 PM 35.6 °F - 30.2 °F 81% 30.61 in 10.0 mi Calm Calm - N/A   Clear
7:43 PM 33.8 °F - 30.2 °F 87% 30.60 in 10.0 mi Calm Calm - N/A   Clear
8:03 PM 33.8 °F - 30.2 °F 87% 30.62 in 10.0 mi Calm Calm - N/A   Clear
8:23 PM 33.8 °F - 30.2 °F 87% 30.63 in 10.0 mi Calm Calm - N/A   Clear
8:43 PM 33.8 °F - 30.2 °F 87% 30.61 in 10.0 mi Calm Calm - N/A   Clear
9:03 PM 35.6 °F - 32.0 °F 87% 30.61 in 10.0 mi Calm Calm - N/A   Clear
9:23 PM 33.8 °F - 32.0 °F 93% 30.62 in 10.0 mi Calm Calm - N/A   Clear
9:43 PM 35.6 °F - 32.0 °F 87% 30.62 in 10.0 mi Calm Calm - N/A   Scattered Clouds
10:03 PM 35.6 °F - 32.0 °F 87% 30.64 in 10.0 mi Calm Calm - N/A   Clear
10:23 PM 35.6 °F - 32.0 °F 87% 30.63 in 10.0 mi Calm Calm - N/A   Clear
10:43 PM 33.8 °F - 32.0 °F 93% 30.63 in 10.0 mi Calm Calm - N/A   Clear
11:03 PM 33.8 °F - 32.0 °F 93% 30.61 in 10.0 mi Calm Calm - N/A   Clear
11:24 PM 33.8 °F 28.6 °F 32.0 °F 93% 30.63 in 10.0 mi West 5.8 mph - N/A   Clear
11:44 PM 33.8 °F - 32.0 °F 93% 30.62 in 10.0 mi Calm Calm - N/A   Clear